Date String (YYYY-MM-DD hh:mm:ss) UTC,Instrument flags,absolute air pressure of the measurement (hPa),sample flow rate (lpm),inlet stack bypass flow (lpm),air temperature of the measurement (°C),ambient temperature measured by the external sensor (°C),aerosol sample conditioner tube jacket temperature (°C),OPC LED temperature (°C),internal box temperature (°C),relative humidity of the measurement (%),span deviation,mass concentration of particles derived from Lorenz-Mie calculation of OPC scattering (μg/m³),mass concentration of particles derived from Lorenz-Mie calculation of OPC scattering (μg/m³),mass concentration of particles derived from Lorenz-Mie calculation of OPC scattering (μg/m³)
DateTimeUTC,F1_M11,P_M11,Q1_M11,Q2_M11,T1_M11,T2_M11,T3_M11,T4_M11,T5_M11,U1_M11,ZSPAN_M11,X2_M11,X0_M11,X1_M11
2024-06-03 05:00:00,SystemResetWarning,0825.7,5.00,000.00,030.8,030.1,000.0,039.2,032.5,015.6,0000.0,0003.74,0009.30,0002.69
2024-06-03 05:01:00,SystemResetWarning,0825.7,5.00,000.00,030.8,030.1,000.0,039.2,032.6,015.5,0000.0,0003.71,0009.27,0002.70
2024-06-03 05:02:00,SystemResetWarning,0825.6,5.00,000.00,030.8,030.1,000.0,039.2,032.6,015.3,0000.0,0003.72,0008.98,0002.70
2024-06-03 05:03:00,SystemResetWarning,0825.6,5.01,000.00,030.8,030.1,000.0,039.2,032.6,015.3,0000.0,0003.76,0008.96,0002.72
2024-06-03 05:04:00,SystemResetWarning,0825.7,5.00,000.00,030.8,030.1,000.0,039.2,032.6,015.5,0000.0,0003.75,0008.83,0002.75
2024-06-03 05:05:00,SystemResetWarning,0825.8,5.00,000.00,030.8,030.1,000.0,039.2,032.6,015.5,0000.0,0003.73,0009.02,0002.77
2024-06-03 05:06:00,SystemResetWarning,0825.8,5.01,000.00,030.9,030.1,000.0,039.3,032.6,015.5,0000.0,0003.78,0009.24,0002.80
2024-06-03 05:07:00,SystemResetWarning,0825.8,5.00,000.00,030.9,030.1,000.0,039.3,032.6,015.4,0000.0,0003.82,0009.49,0002.82
2024-06-03 05:08:00,SystemResetWarning,0825.8,4.99,000.00,030.9,030.1,000.0,039.3,032.6,015.5,0000.0,0003.82,0009.08,0002.85
2024-06-03 05:09:00,SystemResetWarning,0825.8,5.00,000.00,030.9,030.1,000.0,039.3,032.6,015.5,0000.0,0003.84,0009.54,0002.86
2024-06-03 05:10:00,SystemResetWarning,0825.8,5.01,000.00,030.9,030.1,000.0,039.3,032.6,015.2,0000.0,0003.84,0009.66,0002.88
2024-06-03 05:11:00,SystemResetWarning,0825.8,5.01,000.00,030.9,030.1,000.0,039.3,032.6,015.3,0000.0,0003.86,0009.69,0002.91
2024-06-03 05:12:00,SystemResetWarning,0825.8,5.00,000.00,030.9,030.1,000.0,039.3,032.6,015.4,0000.0,0003.85,0010.28,0002.92
2024-06-03 05:13:00,SystemResetWarning,0825.9,5.00,000.00,030.9,030.2,000.0,039.3,032.6,015.3,0000.0,0003.80,0010.56,0002.93
2024-06-03 05:14:00,SystemResetWarning,0825.9,5.00,000.00,030.9,030.2,000.0,039.3,032.6,015.4,0000.0,0003.81,0010.95,0002.96
2024-06-03 05:15:00,SystemResetWarning,0825.9,5.00,000.00,030.9,030.2,000.0,039.3,032.6,015.5,0000.0,0003.80,0011.67,0002.97
2024-06-03 05:16:00,SystemResetWarning,0825.9,5.00,000.00,030.9,030.2,000.0,039.3,032.6,015.6,0000.0,0003.82,0011.48,0002.97
2024-06-03 05:17:00,SystemResetWarning,0825.9,4.99,000.00,030.9,030.2,000.0,039.3,032.6,015.7,0000.0,0003.79,0011.94,0002.96
2024-06-03 05:18:00,SystemResetWarning,0825.9,5.00,000.00,030.9,030.2,000.0,039.3,032.6,015.8,0000.0,0003.77,0011.87,0002.96
2024-06-03 05:19:00,SystemResetWarning,0825.9,5.00,000.00,030.9,030.2,000.0,039.3,032.6,015.8,0000.0,0003.77,0012.04,0002.95
2024-06-03 05:20:00,SystemResetWarning,0825.9,5.00,000.00,030.9,030.2,000.0,039.4,032.7,016.1,0000.0,0003.77,0011.15,0002.98
2024-06-03 05:21:00,SystemResetWarning,0825.9,5.00,000.00,031.0,030.2,000.0,039.3,032.7,016.6,0000.0,0003.81,0010.92,0002.99
2024-06-03 05:22:00,SystemResetWarning,0825.9,5.00,000.00,031.0,030.2,000.0,039.3,032.7,016.7,0000.0,0003.78,0010.81,0002.98
2024-06-03 05:23:00,SystemResetWarning,0825.9,5.00,000.00,031.0,030.3,000.0,039.3,032.7,016.5,0000.0,0003.76,0010.17,0002.97
2024-06-03 05:24:00,SystemResetWarning,0825.9,5.00,000.00,031.0,030.3,000.0,039.3,032.7,016.5,0000.0,0003.81,0009.76,0002.97
2024-06-03 05:25:00,SystemResetWarning,0825.9,5.00,000.00,031.0,030.3,000.0,039.3,032.7,016.6,0000.0,0003.77,0009.20,0002.96
2024-06-03 05:26:00,SystemResetWarning,0825.8,5.00,000.00,031.0,030.3,000.0,039.4,032.7,016.3,0000.0,0003.81,0008.74,0002.94
2024-06-03 05:27:00,SystemResetWarning,0825.9,5.00,000.00,031.0,030.3,000.0,039.4,032.8,016.3,0000.0,0003.80,0008.88,0002.94
2024-06-03 05:28:00,SystemResetWarning,0825.9,5.00,000.00,031.1,030.4,000.0,039.4,032.8,016.1,0000.0,0003.81,0008.70,0002.95
2024-06-03 05:29:00,SystemResetWarning,0825.9,4.99,000.00,031.1,030.4,000.0,039.4,032.7,016.1,0000.0,0003.82,0008.60,0002.96
2024-06-03 05:30:00,SystemResetWarning,0825.9,5.00,000.00,031.1,030.4,000.0,039.4,032.8,015.8,0000.0,0003.84,0008.64,0002.98
2024-06-03 05:31:00,SystemResetWarning,0825.9,4.99,000.00,031.1,030.4,000.0,039.4,032.8,015.7,0000.0,0003.85,0008.73,0002.98
2024-06-03 05:32:00,SystemResetWarning,0826.0,5.00,000.00,031.1,030.4,000.0,039.4,032.8,015.7,0000.0,0003.79,0008.59,0002.98
2024-06-03 05:33:00,SystemResetWarning,0826.0,4.99,000.00,031.0,029.2,000.0,039.5,032.1,015.6,0000.0,0003.87,0008.76,0003.00
2024-06-03 05:34:00,SystemResetWarning,0826.0,5.01,000.00,030.5,027.0,000.0,039.5,031.0,016.1,0000.0,0003.93,0008.90,0003.01
2024-06-03 05:35:00,SystemResetWarning,0826.1,5.01,000.00,030.2,026.8,000.0,039.4,030.8,016.4,0000.0,0003.92,0008.92,0003.04
2024-06-03 05:36:00,SystemResetWarning,0826.2,5.00,000.00,030.1,027.2,000.0,039.2,031.0,016.6,0000.0,0003.98,0010.16,0003.06
2024-06-03 05:37:00,SystemResetWarning,0826.2,4.99,000.00,030.0,027.6,000.0,039.1,031.2,016.7,0000.0,0004.03,0010.58,0003.09
2024-06-03 05:38:00,SystemResetWarning,0826.2,5.01,000.00,030.0,027.9,000.0,039.0,031.4,016.5,0000.0,0004.04,0011.35,0003.11
2024-06-03 05:39:00,SystemResetWarning,0826.2,5.00,000.00,030.1,028.3,000.0,038.9,031.5,016.6,0000.0,0004.05,0011.48,0003.12
2024-06-03 05:40:00,SystemResetWarning,0826.3,5.00,000.00,030.1,028.5,000.0,038.9,031.6,016.5,0000.0,0004.06,0012.28,0003.13
2024-06-03 05:41:00,SystemResetWarning,0826.3,5.00,000.00,030.1,028.8,000.0,038.8,031.7,016.4,0000.0,0004.05,0012.61,0003.13
2024-06-03 05:42:00,SystemResetWarning,0826.4,5.00,000.00,030.1,028.9,000.0,038.8,031.8,016.5,0000.0,0004.11,0012.71,0003.15
2024-06-03 05:43:00,SystemResetWarning,0826.4,5.01,000.00,030.2,029.1,000.0,038.8,031.9,016.5,0000.0,0004.16,0012.90,0003.16
2024-06-03 05:44:00,SystemResetWarning,0826.4,5.00,000.00,030.2,029.2,000.0,038.7,031.9,016.6,0000.0,0004.15,0013.81,0003.17
2024-06-03 05:45:00,SystemResetWarning,0826.4,4.99,000.00,030.2,029.3,000.0,038.7,031.9,016.7,0000.0,0004.15,0013.87,0003.17
2024-06-03 05:46:00,SystemResetWarning,0826.4,4.99,000.00,030.2,029.4,000.0,038.7,032.0,016.6,0000.0,0004.18,0014.31,0003.17
2024-06-03 05:47:00,SystemResetWarning,0826.4,5.00,000.00,030.3,029.5,000.0,038.7,032.0,016.6,0000.0,0004.18,0013.71,0003.17
2024-06-03 05:48:00,SystemResetWarning,0826.4,4.99,000.00,030.3,029.5,000.0,038.7,032.0,016.7,0000.0,0004.14,0013.09,0003.19
2024-06-03 05:49:00,SystemResetWarning,0826.4,5.00,000.00,030.3,029.6,000.0,038.7,032.1,016.6,0000.0,0004.17,0012.08,0003.19
2024-06-03 05:50:00,SystemResetWarning,0826.4,5.01,000.00,030.4,029.6,000.0,038.7,032.1,016.6,0000.0,0004.18,0012.51,0003.19
2024-06-03 05:51:00,SystemResetWarning,0826.4,5.00,000.00,030.4,029.7,000.0,038.8,032.1,016.6,0000.0,0004.21,0012.01,0003.20
2024-06-03 05:52:00,SystemResetWarning,0826.4,5.00,000.00,030.4,029.7,000.0,038.8,032.1,016.5,0000.0,0004.26,0012.40,0003.20
2024-06-03 05:53:00,SystemResetWarning,0826.4,5.00,000.00,030.4,029.8,000.0,038.8,032.2,016.4,0000.0,0004.24,0012.98,0003.21
2024-06-03 05:54:00,SystemResetWarning,0826.4,5.00,000.00,030.5,029.8,000.0,038.8,032.3,016.5,0000.0,0004.26,0013.51,0003.22
2024-06-03 05:55:00,SystemResetWarning,0826.4,5.00,000.00,030.5,029.8,000.0,038.8,032.2,016.5,0000.0,0004.29,0012.93,0003.23
2024-06-03 05:56:00,SystemResetWarning,0826.4,5.00,000.00,030.5,029.8,000.0,038.8,032.3,016.4,0000.0,0004.29,0013.18,0003.25
2024-06-03 05:57:00,SystemResetWarning,0826.4,5.00,000.00,030.5,029.9,000.0,038.9,032.3,016.4,0000.0,0004.39,0013.67,0003.28
2024-06-03 05:58:00,SystemResetWarning,0826.4,5.00,000.00,030.5,029.9,000.0,038.9,032.3,016.4,0000.0,0004.38,0014.55,0003.29
2024-06-03 05:59:00,SystemResetWarning,0826.4,5.00,000.00,030.6,029.9,000.0,038.9,032.3,016.4,0000.0,0004.40,0015.55,0003.30
